Biggs, California, United States (95917)
Lat: 39.41N, Lon: 121.71W
Wx Zone: CAZ016
Local Info
Past Weather Observations for Sunday, July 20, 2014

NOTE: This archive is for the closest National Weather Service station to Biggs. Information may differ from the station used for current weather conditions.

Click here for Long-term Archive

Time Weather Temperature Dewpoint Humidity Pressure Winds Precip Visibility
23:53
Clear
75°F / 24°C 55°F / 13°C 50% 29.92 in
(1013 mb)
SE 6.9 mph
(SE 11 kph)
- 10SM
22:53
Clear
75°F / 24°C 55°F / 13°C 50% 29.92 in
(1013 mb)
SE 9.2 mph
(SE 15 kph)
- 10SM
21:53
Clear
75°F / 24°C 55°F / 13°C 50% 29.92 in
(1013 mb)
SE 9.2 mph
(SE 15 kph)
- 10SM
20:53
Clear
75°F / 24°C 55°F / 13°C 50% 29.92 in
(1013 mb)
SSE 13.8 mph
(SSE 22 kph)
- 10SM
19:53
Clear
79°F / 26°C 55°F / 13°C 45% 29.89 in
(1012 mb)
SSE 15 mph
(SSE 24 kph)
- 10SM
18:53
Clear
82°F / 28°C 54°F / 12°C 37% 29.89 in
(1012 mb)
SSE 15 mph
(SSE 24 kph)
- 10SM
17:53
Clear
86°F / 30°C 54°F / 12°C 33% 29.89 in
(1012 mb)
SSE 15 mph
(SSE 24 kph)
- 10SM
16:53
Clear
88°F / 31°C 54°F / 12°C 31% 29.89 in
(1012 mb)
SSE 20.7 mph
(SSE 33 kph)
- 10SM
15:53
Clear
90°F / 32°C 52°F / 11°C 27% 29.89 in
(1012 mb)
SSE 19.6 mph
(SSE 32 kph)
- 10SM
14:53
Clear
88°F / 31°C 57°F / 14°C 35% 29.89 in
(1012 mb)
S 24.2 mph
(S 39 kph)
- 10SM
13:53
Clear
90°F / 32°C 57°F / 14°C 33% 29.89 in
(1012 mb)
S 19.6 mph
(S 32 kph)
- 10SM
12:53
Clear
84°F / 29°C 57°F / 14°C 40% 29.89 in
(1012 mb)
SSE 17.3 mph
(SSE 28 kph)
- 10SM
11:53
Clear
82°F / 28°C 55°F / 13°C 40% 29.92 in
(1013 mb)
SSE 16.1 mph
(SSE 26 kph)
- 10SM
10:53
Clear
81°F / 27°C 55°F / 13°C 42% 29.92 in
(1013 mb)
S 11.5 mph
(S 19 kph)
- 10SM
09:53
Clear
79°F / 26°C 55°F / 13°C 45% 29.92 in
(1013 mb)
Variable 4.6 mph
(Variable 7 kph)
- 10SM
08:53
Clear
75°F / 24°C 55°F / 13°C 50% 29.92 in
(1013 mb)
S 4.6 mph
(S 7 kph)
- 10SM
07:53
Clear
73°F / 23°C 54°F / 12°C 50% 29.92 in
(1013 mb)
SSE 4.6 mph
(SSE 7 kph)
- 10SM
06:53
Clear
72°F / 22°C 55°F / 13°C 57% 29.89 in
(1012 mb)
SSE 5.8 mph
(SSE 9 kph)
- 10SM
05:53
Clear
70°F / 21°C 54°F / 12°C 57% 29.89 in
(1012 mb)
E 4.6 mph
(E 7 kph)
- 10SM
04:53
Clear
68°F / 20°C 54°F / 12°C 60% 29.89 in
(1012 mb)
SSE 8.1 mph
(SSE 13 kph)
- 10SM
03:53
Clear
70°F / 21°C 55°F / 13°C 60% 29.89 in
(1012 mb)
SE 5.8 mph
(SE 9 kph)
- 10SM
02:53
Clear
70°F / 21°C 55°F / 13°C 60% 29.86 in
(1011 mb)
SE 8.1 mph
(SE 13 kph)
- 10SM
01:53
Clear
72°F / 22°C 57°F / 14°C 61% 29.86 in
(1011 mb)
SSE 4.6 mph
(SSE 7 kph)
- 10SM
00:53
Clear
73°F / 23°C 57°F / 14°C 57% 29.89 in
(1012 mb)
SE 8.1 mph
(SE 13 kph)
- 10SM
Time Weather Temperature Dewpoint Humidity Pressure Winds Precip Visibility


Weather for websites

WeatherForYou.com, LLC is not responsible for any damages or problems caused by this service. Current weather conditions are obtained from the closest station including government and personal stations which may have varying degrees of accuracy. Weather forecasts are derived from the NOAA NDFD. Like all things, this site belongs to Jesus Christ... He just trusts me to maintain it. If you have any questions or comments email webmaster@weatherforyou.com

Copyright © 2014, WeatherForYou.com LLC. All rights reserved.